Year,Month,Day,Hour,Minute,Value (Times are PST for temperature in C)
2008,01,20,00,00,3.40
2008,01,20,00,01,3.40
2008,01,20,00,02,3.40
2008,01,20,00,03,3.40
2008,01,20,00,04,3.30
2008,01,20,00,05,3.30
2008,01,20,00,06,3.30
2008,01,20,00,07,3.30
2008,01,20,00,08,3.30
2008,01,20,00,09,3.30
2008,01,20,00,10,3.30
2008,01,20,00,11,3.30
2008,01,20,00,12,3.20
2008,01,20,00,13,3.20
2008,01,20,00,14,3.20
2008,01,20,00,15,3.20
2008,01,20,00,16,3.20
2008,01,20,00,17,3.20
2008,01,20,00,18,3.20
2008,01,20,00,19,3.10
2008,01,20,00,20,3.10
2008,01,20,00,21,3.10
2008,01,20,00,22,3.10
2008,01,20,00,23,3.10
2008,01,20,00,24,3.10
2008,01,20,00,25,3.00
2008,01,20,00,26,3.00
2008,01,20,00,27,3.00
2008,01,20,00,28,3.00
2008,01,20,00,29,2.90
2008,01,20,00,30,2.90
2008,01,20,00,31,2.90
2008,01,20,00,32,2.90
2008,01,20,00,33,2.90
2008,01,20,00,34,2.90
2008,01,20,00,35,2.90
2008,01,20,00,36,2.90
2008,01,20,00,37,2.80
2008,01,20,00,38,2.80
2008,01,20,00,39,2.80
2008,01,20,00,40,2.80
2008,01,20,00,41,2.70
2008,01,20,00,42,2.70
2008,01,20,00,43,2.70
2008,01,20,00,44,2.70
2008,01,20,00,45,2.60
2008,01,20,00,46,2.60
2008,01,20,00,47,2.60
2008,01,20,00,48,2.60
2008,01,20,00,49,2.50
2008,01,20,00,50,2.50
2008,01,20,00,51,2.50
2008,01,20,00,52,2.40
2008,01,20,00,53,2.40
2008,01,20,00,54,2.40
2008,01,20,00,55,2.30
2008,01,20,00,56,2.30
2008,01,20,00,57,2.30
2008,01,20,00,58,2.30
2008,01,20,00,59,2.30
2008,01,20,01,00,2.30
2008,01,20,01,01,2.30
2008,01,20,01,02,2.20
2008,01,20,01,03,2.20
2008,01,20,01,04,2.20
2008,01,20,01,05,2.20
2008,01,20,01,06,2.20
2008,01,20,01,07,2.20
2008,01,20,01,08,2.20
2008,01,20,01,09,2.10
2008,01,20,01,10,2.10
2008,01,20,01,11,2.10
2008,01,20,01,12,2.10
2008,01,20,01,13,2.10
2008,01,20,01,14,2.10
2008,01,20,01,15,2.10
2008,01,20,01,16,2.10
2008,01,20,01,17,2.10
2008,01,20,01,18,2.00
2008,01,20,01,19,2.00
2008,01,20,01,20,2.00
2008,01,20,01,21,2.00
2008,01,20,01,22,2.00
2008,01,20,01,23,2.00
2008,01,20,01,24,1.90
2008,01,20,01,25,1.90
2008,01,20,01,26,1.90
2008,01,20,01,27,1.90
2008,01,20,01,28,1.80
2008,01,20,01,29,1.80
2008,01,20,01,30,1.80
2008,01,20,01,31,1.70
2008,01,20,01,32,1.70
2008,01,20,01,33,1.70
2008,01,20,01,34,1.70
2008,01,20,01,35,1.70
2008,01,20,01,36,1.70
2008,01,20,01,37,1.60
2008,01,20,01,38,1.60
2008,01,20,01,39,1.60
2008,01,20,01,40,1.60
2008,01,20,01,41,1.60
2008,01,20,01,42,1.60
2008,01,20,01,43,1.70
2008,01,20,01,44,1.70
2008,01,20,01,45,1.70
2008,01,20,01,46,1.70
2008,01,20,01,47,1.70
2008,01,20,01,48,1.60
2008,01,20,01,49,1.60
2008,01,20,01,50,1.60
2008,01,20,01,51,1.50
2008,01,20,01,52,1.50
2008,01,20,01,53,1.50
2008,01,20,01,54,1.50
2008,01,20,01,55,1.40
2008,01,20,01,56,1.40
2008,01,20,01,57,1.40
2008,01,20,01,58,1.40
2008,01,20,01,59,1.40
2008,01,20,02,00,1.40
2008,01,20,02,01,1.30
2008,01,20,02,02,1.30
2008,01,20,02,03,1.40
2008,01,20,02,04,1.40
2008,01,20,02,05,1.40
2008,01,20,02,06,1.40
2008,01,20,02,07,1.40
2008,01,20,02,08,1.50
2008,01,20,02,09,1.50
2008,01,20,02,10,1.50
2008,01,20,02,11,1.60
2008,01,20,02,12,1.60
2008,01,20,02,13,1.60
2008,01,20,02,14,1.60
2008,01,20,02,15,1.60
2008,01,20,02,16,1.60
2008,01,20,02,17,1.60
2008,01,20,02,18,1.60
2008,01,20,02,19,1.60
2008,01,20,02,20,1.60
2008,01,20,02,21,1.60
2008,01,20,02,22,1.60
2008,01,20,02,23,1.60
2008,01,20,02,24,1.60
2008,01,20,02,25,1.60
2008,01,20,02,26,1.70
2008,01,20,02,27,1.70
2008,01,20,02,28,1.70
2008,01,20,02,29,1.60
2008,01,20,02,30,1.60
2008,01,20,02,31,1.60
2008,01,20,02,32,1.60
2008,01,20,02,33,1.60
2008,01,20,02,34,1.60
2008,01,20,02,35,1.60
2008,01,20,02,36,1.60
2008,01,20,02,37,1.70
2008,01,20,02,38,1.70
2008,01,20,02,39,1.70
2008,01,20,02,40,1.70
2008,01,20,02,41,1.70
2008,01,20,02,42,1.60
2008,01,20,02,43,1.60
2008,01,20,02,44,1.60
2008,01,20,02,45,1.60
2008,01,20,02,46,1.60
2008,01,20,02,47,1.70
2008,01,20,02,48,1.70
2008,01,20,02,49,1.70
2008,01,20,02,50,1.70
2008,01,20,02,51,1.70
2008,01,20,02,52,1.70
2008,01,20,02,53,1.70
2008,01,20,02,54,1.70
2008,01,20,02,55,1.70
2008,01,20,02,56,1.70
2008,01,20,02,57,1.70
2008,01,20,02,58,1.70
2008,01,20,02,59,1.70
2008,01,20,03,00,1.80
2008,01,20,03,01,1.80
2008,01,20,03,02,1.80
2008,01,20,03,03,1.80
2008,01,20,03,04,1.80
2008,01,20,03,05,1.80
2008,01,20,03,06,1.80
2008,01,20,03,07,1.80
2008,01,20,03,08,1.80
2008,01,20,03,09,1.80
2008,01,20,03,10,1.80
2008,01,20,03,11,1.80
2008,01,20,03,12,1.80
2008,01,20,03,13,1.80
2008,01,20,03,14,1.80
2008,01,20,03,15,1.80
2008,01,20,03,16,1.80
2008,01,20,03,17,1.80
2008,01,20,03,18,1.80
2008,01,20,03,19,1.80
2008,01,20,03,20,1.80
2008,01,20,03,21,1.90
2008,01,20,03,22,1.90
2008,01,20,03,23,1.90
2008,01,20,03,24,1.90
2008,01,20,03,25,1.90
2008,01,20,03,26,1.90
2008,01,20,03,27,1.90
2008,01,20,03,28,1.90
2008,01,20,03,29,1.90
2008,01,20,03,30,1.90
2008,01,20,03,31,1.90
2008,01,20,03,32,1.90
2008,01,20,03,33,1.90
2008,01,20,03,34,1.90
2008,01,20,03,35,2.00
2008,01,20,03,36,2.00
2008,01,20,03,37,2.00
2008,01,20,03,38,2.00
2008,01,20,03,39,2.00
2008,01,20,03,40,2.10
2008,01,20,03,41,2.10
2008,01,20,03,42,2.10
2008,01,20,03,43,2.10
2008,01,20,03,44,2.10
2008,01,20,03,45,2.10
2008,01,20,03,46,2.10
2008,01,20,03,47,2.10
2008,01,20,03,48,2.10
2008,01,20,03,49,2.10
2008,01,20,03,50,2.10
2008,01,20,03,51,2.10
2008,01,20,03,52,2.10
2008,01,20,03,53,2.20
2008,01,20,03,54,2.20
2008,01,20,03,55,2.20
2008,01,20,03,56,2.20
2008,01,20,03,57,2.20
2008,01,20,03,58,2.20
2008,01,20,03,59,2.30
2008,01,20,04,00,2.30
2008,01,20,04,01,2.30
2008,01,20,04,02,2.30
2008,01,20,04,03,2.30
2008,01,20,04,04,2.40
2008,01,20,04,05,2.40
2008,01,20,04,06,2.40
2008,01,20,04,07,2.40
2008,01,20,04,08,2.40
2008,01,20,04,09,2.40
2008,01,20,04,10,2.40
2008,01,20,04,11,2.40
2008,01,20,04,12,2.40
2008,01,20,04,13,2.40
2008,01,20,04,14,2.40
2008,01,20,04,15,2.40
2008,01,20,04,16,2.40
2008,01,20,04,17,2.40
2008,01,20,04,18,2.50
2008,01,20,04,19,2.50
2008,01,20,04,20,2.50
2008,01,20,04,21,2.50
2008,01,20,04,22,2.50
2008,01,20,04,23,2.50
2008,01,20,04,24,2.50
2008,01,20,04,25,2.50
2008,01,20,04,26,2.60
2008,01,20,04,27,2.60
2008,01,20,04,28,2.60
2008,01,20,04,29,2.60
2008,01,20,04,30,2.60
2008,01,20,04,31,2.60
2008,01,20,04,32,2.60
2008,01,20,04,33,2.60
2008,01,20,04,34,2.60
2008,01,20,04,35,2.60
2008,01,20,04,36,2.60
2008,01,20,04,37,2.70
2008,01,20,04,38,2.70
2008,01,20,04,39,2.70
2008,01,20,04,40,2.70
2008,01,20,04,41,2.70
2008,01,20,04,42,2.70
2008,01,20,04,43,2.70
2008,01,20,04,44,2.70
2008,01,20,04,45,2.70
2008,01,20,04,46,2.70
2008,01,20,04,47,2.70
2008,01,20,04,48,2.70
2008,01,20,04,49,2.70
2008,01,20,04,50,2.70
2008,01,20,04,51,2.70
2008,01,20,04,52,2.70
2008,01,20,04,53,2.70
2008,01,20,04,54,2.70
2008,01,20,04,55,2.70
2008,01,20,04,56,2.70
2008,01,20,04,57,2.70
2008,01,20,04,58,2.80
2008,01,20,04,59,2.80
2008,01,20,05,00,2.80
2008,01,20,05,01,2.80
2008,01,20,05,02,2.80
2008,01,20,05,03,2.80
2008,01,20,05,04,2.80
2008,01,20,05,05,2.80
2008,01,20,05,06,2.80
2008,01,20,05,07,2.80
2008,01,20,05,08,2.80
2008,01,20,05,09,2.80
2008,01,20,05,10,2.80
2008,01,20,05,11,2.80
2008,01,20,05,12,2.80
2008,01,20,05,13,2.90
2008,01,20,05,14,2.90
2008,01,20,05,15,2.90
2008,01,20,05,16,2.90
2008,01,20,05,17,2.90
2008,01,20,05,18,2.90
2008,01,20,05,19,2.90
2008,01,20,05,20,3.00
2008,01,20,05,21,3.00
2008,01,20,05,22,3.00
2008,01,20,05,23,3.00
2008,01,20,05,24,3.00
2008,01,20,05,25,3.00
2008,01,20,05,26,3.00
2008,01,20,05,27,3.00
2008,01,20,05,28,3.10
2008,01,20,05,29,3.10
2008,01,20,05,30,3.10
2008,01,20,05,31,3.10
2008,01,20,05,32,3.10
2008,01,20,05,33,3.10
2008,01,20,05,34,3.10
2008,01,20,05,35,3.10
2008,01,20,05,36,3.10
2008,01,20,05,37,3.10
2008,01,20,05,38,3.10
2008,01,20,05,39,3.10
2008,01,20,05,40,3.10
2008,01,20,05,41,3.10
2008,01,20,05,42,3.10
2008,01,20,05,43,3.10
2008,01,20,05,44,3.10
2008,01,20,05,45,3.20
2008,01,20,05,46,3.20
2008,01,20,05,47,3.20
2008,01,20,05,48,3.20
2008,01,20,05,49,3.20
2008,01,20,05,50,3.20
2008,01,20,05,51,3.20
2008,01,20,05,52,3.20
2008,01,20,05,53,3.20
2008,01,20,05,54,3.20
2008,01,20,05,55,3.20
2008,01,20,05,56,3.30
2008,01,20,05,57,3.30
2008,01,20,05,58,3.30
2008,01,20,05,59,3.30
2008,01,20,06,00,3.30
2008,01,20,06,01,3.30
2008,01,20,06,02,3.30
2008,01,20,06,03,3.30
2008,01,20,06,04,3.30
2008,01,20,06,05,3.30
2008,01,20,06,06,3.30
2008,01,20,06,07,3.30
2008,01,20,06,08,3.30
2008,01,20,06,09,3.30
2008,01,20,06,10,3.30
2008,01,20,06,11,3.40
2008,01,20,06,12,3.40
2008,01,20,06,13,3.40
2008,01,20,06,14,3.40
2008,01,20,06,15,3.40
2008,01,20,06,16,3.40
2008,01,20,06,17,3.40
2008,01,20,06,18,3.40
2008,01,20,06,19,3.40
2008,01,20,06,20,3.40
2008,01,20,06,21,3.40
2008,01,20,06,22,3.40
2008,01,20,06,23,3.40
2008,01,20,06,24,3.40
2008,01,20,06,25,3.40
2008,01,20,06,26,3.40
2008,01,20,06,27,3.50
2008,01,20,06,28,3.50
2008,01,20,06,29,3.50
2008,01,20,06,30,3.60
2008,01,20,06,31,3.60
2008,01,20,06,32,3.60
2008,01,20,06,33,3.70
2008,01,20,06,34,3.70
2008,01,20,06,35,3.70
2008,01,20,06,36,3.80
2008,01,20,06,37,3.80
2008,01,20,06,38,3.80
2008,01,20,06,39,3.80
2008,01,20,06,40,3.80
2008,01,20,06,41,3.80
2008,01,20,06,42,3.80
2008,01,20,06,43,3.90
2008,01,20,06,44,3.90
2008,01,20,06,45,3.80
2008,01,20,06,46,3.90
2008,01,20,06,47,3.90
2008,01,20,06,48,3.90
2008,01,20,06,49,3.90
2008,01,20,06,50,3.90
2008,01,20,06,51,3.90
2008,01,20,06,52,3.90
2008,01,20,06,53,3.90
2008,01,20,06,54,3.90
2008,01,20,06,55,3.90
2008,01,20,06,56,3.90
2008,01,20,06,57,3.90
2008,01,20,06,58,3.90
2008,01,20,06,59,3.90
2008,01,20,07,00,3.90
2008,01,20,07,01,3.90
2008,01,20,07,02,3.90
2008,01,20,07,03,3.90
2008,01,20,07,04,3.90
2008,01,20,07,05,3.90
2008,01,20,07,06,3.90
2008,01,20,07,07,3.90
2008,01,20,07,08,3.90
2008,01,20,07,09,3.90
2008,01,20,07,10,3.90
2008,01,20,07,11,3.90
2008,01,20,07,12,3.90
2008,01,20,07,13,3.90
2008,01,20,07,14,3.90
2008,01,20,07,15,3.90
2008,01,20,07,16,4.00
2008,01,20,07,17,4.00
2008,01,20,07,18,4.00
2008,01,20,07,19,4.00
2008,01,20,07,20,4.00
2008,01,20,07,21,3.90
2008,01,20,07,22,3.90
2008,01,20,07,23,3.90
2008,01,20,07,24,3.90
2008,01,20,07,25,3.90
2008,01,20,07,26,3.90
2008,01,20,07,27,3.90
2008,01,20,07,28,3.90
2008,01,20,07,29,3.90
2008,01,20,07,30,3.90
2008,01,20,07,31,3.90
2008,01,20,07,32,3.80
2008,01,20,07,33,3.80
2008,01,20,07,34,3.80
2008,01,20,07,35,3.80
2008,01,20,07,36,3.80
2008,01,20,07,37,3.80
2008,01,20,07,38,3.80
2008,01,20,07,39,3.80
2008,01,20,07,40,3.70
2008,01,20,07,41,3.70
2008,01,20,07,42,3.70
2008,01,20,07,43,3.70
2008,01,20,07,44,3.70
2008,01,20,07,45,3.70
2008,01,20,07,46,3.70
2008,01,20,07,47,3.70
2008,01,20,07,48,3.70
2008,01,20,07,49,3.80
2008,01,20,07,50,3.80
2008,01,20,07,51,3.80
2008,01,20,07,52,3.80
2008,01,20,07,53,3.80
2008,01,20,07,54,3.80
2008,01,20,07,55,3.80
2008,01,20,07,56,3.80
2008,01,20,07,57,3.70
2008,01,20,07,58,3.80
2008,01,20,07,59,3.70
2008,01,20,08,00,3.70
2008,01,20,08,01,3.70
2008,01,20,08,02,3.70
2008,01,20,08,03,3.70
2008,01,20,08,04,3.70
2008,01,20,08,05,3.70
2008,01,20,08,06,3.80
2008,01,20,08,07,3.80
2008,01,20,08,08,3.80
2008,01,20,08,09,3.80
2008,01,20,08,10,3.80
2008,01,20,08,11,3.80
2008,01,20,08,12,3.80
2008,01,20,08,13,3.80
2008,01,20,08,14,3.90
2008,01,20,08,15,3.90
2008,01,20,08,16,3.90
2008,01,20,08,17,4.00
2008,01,20,08,18,4.00
2008,01,20,08,19,4.00
2008,01,20,08,20,4.00
2008,01,20,08,21,4.00
2008,01,20,08,22,4.00
2008,01,20,08,23,4.10
2008,01,20,08,24,4.10
2008,01,20,08,25,4.10
2008,01,20,08,26,4.10
2008,01,20,08,27,4.10
2008,01,20,08,28,4.10
2008,01,20,08,29,4.10
2008,01,20,08,30,4.10
2008,01,20,08,31,4.00
2008,01,20,08,32,4.00
2008,01,20,08,33,4.00
2008,01,20,08,34,4.10
2008,01,20,08,35,4.10
2008,01,20,08,36,4.00
2008,01,20,08,37,4.00
2008,01,20,08,38,4.00
2008,01,20,08,39,4.00
2008,01,20,08,40,4.00
2008,01,20,08,41,4.00
2008,01,20,08,42,4.00
2008,01,20,08,43,4.00
2008,01,20,08,44,3.90
2008,01,20,08,45,3.90
2008,01,20,08,46,3.90
2008,01,20,08,47,3.80
2008,01,20,08,48,3.80
2008,01,20,08,49,3.80
2008,01,20,08,50,3.80
2008,01,20,08,51,3.80
2008,01,20,08,52,3.80
2008,01,20,08,53,3.80
2008,01,20,08,54,3.80
2008,01,20,08,55,3.80
2008,01,20,08,56,3.80
2008,01,20,08,57,3.80
2008,01,20,08,58,3.80
2008,01,20,08,59,3.80
2008,01,20,09,00,3.80
2008,01,20,09,01,3.70
2008,01,20,09,02,3.70
2008,01,20,09,03,3.70
2008,01,20,09,04,3.70
2008,01,20,09,05,3.70
2008,01,20,09,06,3.70
2008,01,20,09,07,3.70
2008,01,20,09,08,3.70
2008,01,20,09,09,3.70
2008,01,20,09,10,3.70
2008,01,20,09,11,3.70
2008,01,20,09,12,3.70
2008,01,20,09,13,3.70
2008,01,20,09,14,3.70
2008,01,20,09,15,3.70
2008,01,20,09,16,3.60
2008,01,20,09,17,3.60
2008,01,20,09,18,3.60
2008,01,20,09,19,3.60
2008,01,20,09,20,3.60
2008,01,20,09,21,3.60
2008,01,20,09,22,3.60
2008,01,20,09,23,3.60
2008,01,20,09,24,3.60
2008,01,20,09,25,3.60
2008,01,20,09,26,3.70
2008,01,20,09,27,3.70
2008,01,20,09,28,3.70
2008,01,20,09,29,3.70
2008,01,20,09,30,3.70
2008,01,20,09,31,3.70
2008,01,20,09,32,3.80
2008,01,20,09,33,3.80
2008,01,20,09,34,3.80
2008,01,20,09,35,3.80
2008,01,20,09,36,3.90
2008,01,20,09,37,3.90
2008,01,20,09,38,4.00
2008,01,20,09,39,4.00
2008,01,20,09,40,4.10
2008,01,20,09,41,4.20
2008,01,20,09,42,4.20
2008,01,20,09,43,4.30
2008,01,20,09,44,4.40
2008,01,20,09,45,4.50
2008,01,20,09,46,4.60
2008,01,20,09,47,4.70
2008,01,20,09,48,4.80
2008,01,20,09,49,4.80
2008,01,20,09,50,4.90
2008,01,20,09,51,5.00
2008,01,20,09,52,5.00
2008,01,20,09,53,5.10
2008,01,20,09,54,5.10
2008,01,20,09,55,5.10
2008,01,20,09,56,5.20
2008,01,20,09,57,5.20
2008,01,20,09,58,5.20
2008,01,20,09,59,5.20
2008,01,20,10,00,5.20
2008,01,20,10,01,5.20
2008,01,20,10,02,5.20
2008,01,20,10,03,5.20
2008,01,20,10,04,5.20
2008,01,20,10,05,5.20
2008,01,20,10,06,5.30
2008,01,20,10,07,5.30
2008,01,20,10,08,5.30
2008,01,20,10,09,5.30
2008,01,20,10,10,5.30
2008,01,20,10,11,5.30
2008,01,20,10,12,5.30
2008,01,20,10,13,5.30
2008,01,20,10,14,5.30
2008,01,20,10,15,5.30
2008,01,20,10,16,5.30
2008,01,20,10,17,5.30
2008,01,20,10,18,5.30
2008,01,20,10,19,5.30
2008,01,20,10,20,5.40
2008,01,20,10,21,5.40
2008,01,20,10,22,5.40
2008,01,20,10,23,5.40
2008,01,20,10,24,5.40
2008,01,20,10,25,5.40
2008,01,20,10,26,5.40
2008,01,20,10,27,5.40
2008,01,20,10,28,5.40
2008,01,20,10,29,5.40
2008,01,20,10,30,5.40
2008,01,20,10,31,5.40
2008,01,20,10,32,5.40
2008,01,20,10,33,5.50
2008,01,20,10,34,5.50
2008,01,20,10,35,5.50
2008,01,20,10,36,5.60
2008,01,20,10,37,5.60
2008,01,20,10,38,5.60
2008,01,20,10,39,5.60
2008,01,20,10,40,5.60
2008,01,20,10,41,5.60
2008,01,20,10,42,5.60
2008,01,20,10,43,5.60
2008,01,20,10,44,5.70
2008,01,20,10,45,5.70
2008,01,20,10,46,5.70
2008,01,20,10,47,5.70
2008,01,20,10,48,5.70
2008,01,20,10,49,5.80
2008,01,20,10,50,5.80
2008,01,20,10,51,5.80
2008,01,20,10,52,5.80
2008,01,20,10,53,5.80
2008,01,20,10,54,5.80
2008,01,20,10,55,5.80
2008,01,20,10,56,5.80
2008,01,20,10,57,5.80
2008,01,20,10,58,5.80
2008,01,20,10,59,5.80
2008,01,20,11,00,5.90
2008,01,20,11,01,5.90
2008,01,20,11,02,5.90
2008,01,20,11,03,5.90
2008,01,20,11,04,6.00
2008,01,20,11,05,6.00
2008,01,20,11,06,6.10
2008,01,20,11,07,6.10
2008,01,20,11,08,6.10
2008,01,20,11,09,6.10
2008,01,20,11,10,6.20
2008,01,20,11,11,6.20
2008,01,20,11,12,6.20
2008,01,20,11,13,6.30
2008,01,20,11,14,6.30
2008,01,20,11,15,6.30
2008,01,20,11,16,6.30
2008,01,20,11,17,6.30
2008,01,20,11,18,6.20
2008,01,20,11,19,6.20
2008,01,20,11,20,6.20
2008,01,20,11,21,6.20
2008,01,20,11,22,6.20
2008,01,20,11,23,6.20
2008,01,20,11,24,6.20
2008,01,20,11,25,6.10
2008,01,20,11,26,6.10
2008,01,20,11,27,6.10
2008,01,20,11,28,6.10
2008,01,20,11,29,6.00
2008,01,20,11,30,6.00
2008,01,20,11,31,6.00
2008,01,20,11,32,6.00
2008,01,20,11,33,6.00
2008,01,20,11,34,5.90
2008,01,20,11,35,5.90
2008,01,20,11,36,5.90
2008,01,20,11,37,5.90
2008,01,20,11,38,5.90
2008,01,20,11,39,5.90
2008,01,20,11,40,5.90
2008,01,20,11,41,5.90
2008,01,20,11,42,5.90
2008,01,20,11,43,5.90
2008,01,20,11,44,5.90
2008,01,20,11,45,5.90
2008,01,20,11,46,5.90
2008,01,20,11,47,5.90
2008,01,20,11,48,5.90
2008,01,20,11,49,5.90
2008,01,20,11,50,5.90
2008,01,20,11,51,5.90
2008,01,20,11,52,6.00
2008,01,20,11,53,6.00
2008,01,20,11,54,6.00
2008,01,20,11,55,6.00
2008,01,20,11,56,6.00
2008,01,20,11,57,6.00
2008,01,20,11,58,6.10
2008,01,20,11,59,6.10
2008,01,20,12,00,6.10
2008,01,20,12,01,6.10
2008,01,20,12,02,6.10
2008,01,20,12,03,6.10
2008,01,20,12,04,6.10
2008,01,20,12,05,6.10
2008,01,20,12,06,6.10
2008,01,20,12,07,6.10
2008,01,20,12,08,6.00
2008,01,20,12,09,6.00
2008,01,20,12,10,6.00
2008,01,20,12,11,6.00
2008,01,20,12,12,6.00
2008,01,20,12,13,5.90
2008,01,20,12,14,5.90
2008,01,20,12,15,5.90
2008,01,20,12,16,5.90
2008,01,20,12,17,5.90
2008,01,20,12,18,5.90
2008,01,20,12,19,5.90
2008,01,20,12,20,5.90
2008,01,20,12,21,5.90
2008,01,20,12,22,5.90
2008,01,20,12,23,5.90
2008,01,20,12,24,5.90
2008,01,20,12,25,5.90
2008,01,20,12,26,5.90
2008,01,20,12,27,5.90
2008,01,20,12,28,5.90
2008,01,20,12,29,5.90
2008,01,20,12,30,5.90
2008,01,20,12,31,5.90
2008,01,20,12,32,5.80
2008,01,20,12,33,5.90
2008,01,20,12,34,5.90
2008,01,20,12,35,5.90
2008,01,20,12,36,5.90
2008,01,20,12,37,5.90
2008,01,20,12,38,5.90
2008,01,20,12,39,5.90
2008,01,20,12,40,5.90
2008,01,20,12,41,5.90
2008,01,20,12,42,5.90
2008,01,20,12,43,5.90
2008,01,20,12,44,5.90
2008,01,20,12,45,5.90
2008,01,20,12,46,5.90
2008,01,20,12,47,5.90
2008,01,20,12,48,5.90
2008,01,20,12,49,5.80
2008,01,20,12,50,5.80
2008,01,20,12,51,5.80
2008,01,20,12,52,5.80
2008,01,20,12,53,5.80
2008,01,20,12,54,5.80
2008,01,20,12,55,5.80
2008,01,20,12,56,5.80
2008,01,20,12,57,5.80
2008,01,20,12,58,5.80
2008,01,20,12,59,5.80
2008,01,20,13,00,5.70
2008,01,20,13,01,5.70
2008,01,20,13,02,5.70
2008,01,20,13,03,5.70
2008,01,20,13,04,5.70
2008,01,20,13,05,5.70
2008,01,20,13,06,5.70
2008,01,20,13,07,5.70
2008,01,20,13,08,5.70
2008,01,20,13,09,5.60
2008,01,20,13,10,5.70
2008,01,20,13,11,5.70
2008,01,20,13,12,5.70
2008,01,20,13,13,5.70
2008,01,20,13,14,5.70
2008,01,20,13,15,5.70
2008,01,20,13,16,5.70
2008,01,20,13,17,5.70
2008,01,20,13,18,5.70
2008,01,20,13,19,5.70
2008,01,20,13,20,5.70
2008,01,20,13,21,5.70
2008,01,20,13,22,5.70
2008,01,20,13,23,5.70
2008,01,20,13,24,5.70
2008,01,20,13,25,5.70
2008,01,20,13,26,5.70
2008,01,20,13,27,5.70
2008,01,20,13,28,5.70
2008,01,20,13,29,5.70
2008,01,20,13,30,5.70
2008,01,20,13,31,5.70
2008,01,20,13,32,5.70
2008,01,20,13,33,5.70
2008,01,20,13,34,5.70
2008,01,20,13,35,5.70
2008,01,20,13,36,5.70
2008,01,20,13,37,5.70
2008,01,20,13,38,5.60
2008,01,20,13,39,5.60
2008,01,20,13,40,5.60
2008,01,20,13,41,5.60
2008,01,20,13,42,5.60
2008,01,20,13,43,5.70
2008,01,20,13,44,5.70
2008,01,20,13,45,5.70
2008,01,20,13,46,5.70
2008,01,20,13,47,5.70
2008,01,20,13,48,5.70
2008,01,20,13,49,5.70
2008,01,20,13,50,5.60
2008,01,20,13,51,5.60
2008,01,20,13,52,5.60
2008,01,20,13,53,5.60
2008,01,20,13,54,5.60
2008,01,20,13,55,5.60
2008,01,20,13,56,5.60
2008,01,20,13,57,5.60
2008,01,20,13,58,5.60
2008,01,20,13,59,5.60
2008,01,20,14,00,5.60
2008,01,20,14,01,5.50
2008,01,20,14,02,5.50
2008,01,20,14,03,5.50
2008,01,20,14,04,5.50
2008,01,20,14,05,5.50
2008,01,20,14,06,5.50
2008,01,20,14,07,5.50
2008,01,20,14,08,5.50
2008,01,20,14,09,5.50
2008,01,20,14,10,5.50
2008,01,20,14,11,5.50
2008,01,20,14,12,5.50
2008,01,20,14,13,5.50
2008,01,20,14,14,5.50
2008,01,20,14,15,5.50
2008,01,20,14,16,5.60
2008,01,20,14,17,5.60
2008,01,20,14,18,5.60
2008,01,20,14,19,5.60
2008,01,20,14,20,5.60
2008,01,20,14,21,5.60
2008,01,20,14,22,5.60
2008,01,20,14,23,5.60
2008,01,20,14,24,5.60
2008,01,20,14,25,5.60
2008,01,20,14,26,5.60
2008,01,20,14,27,5.60
2008,01,20,14,28,5.50
2008,01,20,14,29,5.50
2008,01,20,14,30,5.50
2008,01,20,14,31,5.60
2008,01,20,14,32,5.60
2008,01,20,14,33,5.50
2008,01,20,14,34,5.50
2008,01,20,14,35,5.50
2008,01,20,14,36,5.50
2008,01,20,14,37,5.40
2008,01,20,14,38,5.40
2008,01,20,14,39,5.40
2008,01,20,14,40,5.40
2008,01,20,14,41,5.40
2008,01,20,14,42,5.40
2008,01,20,14,43,5.40
2008,01,20,14,44,5.40
2008,01,20,14,45,5.40
2008,01,20,14,46,5.30
2008,01,20,14,47,5.30
2008,01,20,14,48,5.30
2008,01,20,14,49,5.30
2008,01,20,14,50,5.30
2008,01,20,14,51,5.30
2008,01,20,14,52,5.30
2008,01,20,14,53,5.30
2008,01,20,14,54,5.30
2008,01,20,14,55,5.30
2008,01,20,14,56,5.20
2008,01,20,14,57,5.20
2008,01,20,14,58,5.20
2008,01,20,14,59,5.20
2008,01,20,15,00,5.10
2008,01,20,15,01,5.10
2008,01,20,15,02,5.10
2008,01,20,15,03,5.10
2008,01,20,15,04,5.10
2008,01,20,15,05,5.10
2008,01,20,15,06,5.10
2008,01,20,15,07,5.10
2008,01,20,15,08,5.10
2008,01,20,15,09,5.10
2008,01,20,15,10,5.10
2008,01,20,15,11,5.10
2008,01,20,15,12,5.10
2008,01,20,15,13,5.10
2008,01,20,15,14,5.10
2008,01,20,15,15,5.10
2008,01,20,15,16,5.10
2008,01,20,15,17,5.20
2008,01,20,15,18,5.20
2008,01,20,15,19,5.20
2008,01,20,15,20,5.20
2008,01,20,15,21,5.20
2008,01,20,15,22,5.20
2008,01,20,15,23,5.20
2008,01,20,15,24,5.10
2008,01,20,15,25,5.10
2008,01,20,15,26,5.10
2008,01,20,15,27,5.10
2008,01,20,15,28,5.10
2008,01,20,15,29,5.10
2008,01,20,15,30,5.10
2008,01,20,15,31,5.10
2008,01,20,15,32,5.10
2008,01,20,15,33,5.10
2008,01,20,15,34,5.10
2008,01,20,15,35,5.10
2008,01,20,15,36,5.10
2008,01,20,15,37,5.10
2008,01,20,15,38,5.10
2008,01,20,15,39,5.10
2008,01,20,15,40,5.10
2008,01,20,15,41,5.10
2008,01,20,15,42,5.10
2008,01,20,15,43,5.10
2008,01,20,15,44,5.10
2008,01,20,15,45,5.10
2008,01,20,15,46,5.10
2008,01,20,15,47,5.10
2008,01,20,15,48,5.10
2008,01,20,15,49,5.10
2008,01,20,15,50,5.00
2008,01,20,15,51,5.00
2008,01,20,15,52,5.00
2008,01,20,15,53,5.00
2008,01,20,15,54,5.00
2008,01,20,15,55,5.00
2008,01,20,15,56,5.00
2008,01,20,15,57,5.00
2008,01,20,15,58,5.00
2008,01,20,15,59,5.00
2008,01,20,16,00,5.00
2008,01,20,16,01,5.00
2008,01,20,16,02,5.00
2008,01,20,16,03,5.00
2008,01,20,16,04,4.90
2008,01,20,16,05,4.90
2008,01,20,16,06,4.90
2008,01,20,16,07,4.90
2008,01,20,16,08,4.80
2008,01,20,16,09,4.80
2008,01,20,16,10,4.80
2008,01,20,16,11,4.80
2008,01,20,16,12,4.80
2008,01,20,16,13,4.80
2008,01,20,16,14,4.80
2008,01,20,16,15,4.80
2008,01,20,16,16,4.70
2008,01,20,16,17,4.70
2008,01,20,16,18,4.70
2008,01,20,16,19,4.70
2008,01,20,16,20,4.60
2008,01,20,16,21,4.60
2008,01,20,16,22,4.60
2008,01,20,16,23,4.60
2008,01,20,16,24,4.60
2008,01,20,16,25,4.60
2008,01,20,16,26,4.60
2008,01,20,16,27,4.60
2008,01,20,16,28,4.50
2008,01,20,16,29,4.50
2008,01,20,16,30,4.50
2008,01,20,16,31,4.50
2008,01,20,16,32,4.50
2008,01,20,16,33,4.50
2008,01,20,16,34,4.50
2008,01,20,16,35,4.50
2008,01,20,16,36,4.40
2008,01,20,16,37,4.40
2008,01,20,16,38,4.40
2008,01,20,16,39,4.50
2008,01,20,16,40,4.50
2008,01,20,16,41,4.50
2008,01,20,16,42,4.50
2008,01,20,16,43,4.50
2008,01,20,16,44,4.50
2008,01,20,16,45,4.50
2008,01,20,16,46,4.50
2008,01,20,16,47,4.50
2008,01,20,16,48,4.50
2008,01,20,16,49,4.50
2008,01,20,16,50,4.50
2008,01,20,16,51,4.50
2008,01,20,16,52,4.50
2008,01,20,16,53,4.40
2008,01,20,16,54,4.40
2008,01,20,16,55,4.50
2008,01,20,16,56,4.40
2008,01,20,16,57,4.40
2008,01,20,16,58,4.40
2008,01,20,16,59,4.40
2008,01,20,17,00,4.40
2008,01,20,17,01,4.50
2008,01,20,17,02,4.50
2008,01,20,17,03,4.50
2008,01,20,17,04,4.60
2008,01,20,17,05,4.50
2008,01,20,17,06,4.50
2008,01,20,17,07,4.50
2008,01,20,17,08,4.50
2008,01,20,17,09,4.40
2008,01,20,17,10,4.50
2008,01,20,17,11,4.50
2008,01,20,17,12,4.50
2008,01,20,17,13,4.50
2008,01,20,17,14,4.50
2008,01,20,17,15,4.60
2008,01,20,17,16,4.60
2008,01,20,17,17,4.60
2008,01,20,17,18,4.70
2008,01,20,17,19,4.70
2008,01,20,17,20,4.70
2008,01,20,17,21,4.70
2008,01,20,17,22,4.60
2008,01,20,17,23,4.60
2008,01,20,17,24,4.60
2008,01,20,17,25,4.70
2008,01,20,17,26,4.70
2008,01,20,17,27,4.70
2008,01,20,17,28,4.70
2008,01,20,17,29,4.70
2008,01,20,17,30,4.70
2008,01,20,17,31,4.70
2008,01,20,17,32,4.60
2008,01,20,17,33,4.60
2008,01,20,17,34,4.60
2008,01,20,17,35,4.60
2008,01,20,17,36,4.60
2008,01,20,17,37,4.60
2008,01,20,17,38,4.60
2008,01,20,17,39,4.60
2008,01,20,17,40,4.60
2008,01,20,17,41,4.60
2008,01,20,17,42,4.60
2008,01,20,17,43,4.60
2008,01,20,17,44,4.60
2008,01,20,17,45,4.60
2008,01,20,17,46,4.60
2008,01,20,17,47,4.60
2008,01,20,17,48,4.60
2008,01,20,17,49,4.60
2008,01,20,17,50,4.60
2008,01,20,17,51,4.60
2008,01,20,17,52,4.60
2008,01,20,17,53,4.60
2008,01,20,17,54,4.60
2008,01,20,17,55,4.60
2008,01,20,17,56,4.60
2008,01,20,17,57,4.60
2008,01,20,17,58,4.60
2008,01,20,17,59,4.50
2008,01,20,18,00,4.50
2008,01,20,18,01,4.50
2008,01,20,18,02,4.50
2008,01,20,18,03,4.50
2008,01,20,18,04,4.50
2008,01,20,18,05,4.50
2008,01,20,18,06,4.50